Skip Page Navigation
NASA JPL Caltech
NASA Logo - Jet Propulsion Laboratory + View the NASA Portal
+ Center for Near-Earth Object Studies
JPL Home Earth Solar System Stars & Galaxies Technology
JPL Solar System Dynamics
BODIES ORBITS EPHEMERIDES TOOLS PHYSICAL DATA DISCOVERY FAQ SITE MAP
JPL Small-Body Database Browser
Search: [ help ]  
362337 (2010 LO37)
Classification: Main-belt Asteroid          SPK-ID: 2362337
Ephemeris | Orbit Diagram | Orbital Elements | Mission Design | Physical Parameters | Discovery Circumstances | Close-Approach Data ]

[ show orbit diagram ]
Orbital Elements at Epoch 2459200.5 (2020-Dec-17.0) TDB
Reference: JPL 11 (heliocentric ecliptic J2000)
 Element Value Uncertainty (1-sigma)   Units 
e .08164671057611692 9.4351e-08  
a 2.766374609111542 3.0971e-08 au
q 2.540509222056293 2.7052e-07 au
i 4.252422567247527 1.1567e-05 deg
node 176.9314965062989 0.00010828 deg
peri 200.5742138687172 0.00012678 deg
M 56.37323697765553 6.4875e-05 deg
tp 2458937.330603975861
(2020-Mar-28.83060398)
0.00030168 TDB
period 1680.602137610835
4.60
2.8223e-05
7.727e-08
d
yr
n .214208938536625 3.5973e-09 deg/d
Q 2.992239996166791 3.35e-08 au
  Orbit Determination Parameters
   # obs. used (total)      90  
   data-arc span      7001 days (19.17 yr)  
   first obs. used      2001-10-15  
   last obs. used      2020-12-15  
   planetary ephem.      DE441  
   SB-pert. ephem.      SB441-N16  
   condition code      0  
   norm. resid. RMS      .703  
   source      ORB  
   producer      Otto Matic  
   solution date      2021-Apr-14 09:39:07  

Additional Information
 Earth MOID = 1.54082 au 
 Jupiter MOID = 2.41066 au 
 T_jup = 3.330 
[ show covariance matrix ]

Ephemeris | Orbit Diagram | Orbital Elements | Mission Design | Physical Parameters | Discovery Circumstances | Close-Approach Data ]

Physical Parameter Table
Parameter Symbol Value Units Sigma Reference Notes
absolute magnitude H 17.33   n/a MPCxxxxx  
diameter diameter 2.459 km 0.586 urn:nasa:pds:neowise_diameters_albedos::2.0[mainbelt] (http://adsabs.harvard.edu/abs/2011ApJ...741...68M)  
geometric albedo albedo 0.042   0.016 urn:nasa:pds:neowise_diameters_albedos::2.0[mainbelt] (http://adsabs.harvard.edu/abs/2011ApJ...741...68M)  

362337 (2010 LO37)          Discovered 2010-Jun-06 by WISE at WISE
Reference: Last Updated: 2013-04-29

[ show close-approach data ]
Ephemeris | Orbit Diagram | Orbital Elements | Mission Design | Physical Parameters | Discovery Circumstances | Close-Approach Data ]
ABOUT SSD CREDITS/AWARDS PRIVACY/COPYRIGHT GLOSSARY LINKS
FirstGov 2021-Jun-23 10:07 UT
(server date/time)  
NASA Home Page
Site Manager:   Ryan S. Park
Webmaster  Alan B. Chamberlin